AC2VK-1 Weather Reports


Display with metric or nautical units.
time (UTC)temp
F
wind
direction
speed
MPH
gust
MPH
rain 1hr
in
rain 24hr
in
rain mn
in
humidity
%
barometer
mb
20260504023921 55 154 1.0 2.0 0.00 0.00 0.00 60 1019.0
20260504022921 55 168 0.0 2.0 0.00 0.00 0.00 59 1019.0
20260504021921 55 167 1.0 1.0 0.00 0.00 0.00 60 1018.9
20260504020921 56 154 1.0 2.0 0.00 0.00 0.00 60 1018.7
20260504015921 56 155 0.0 2.0 0.00 0.00 0.00 59 1018.7
20260504014921 55 155 0.0 0.0 0.00 0.00 0.00 60 1018.6
20260504013921 56 158 0.0 0.0 0.00 0.00 0.00 60 1018.7
20260504012921 57 158 0.0 0.0 0.00 0.00 0.00 58 1018.8
20260504011921 57 158 0.0 0.0 0.00 0.00 0.00 58 1018.8
20260504010921 57 158 0.0 0.0 0.00 0.00 0.00 57 1018.6
20260504005921 58 162 1.0 1.0 0.00 0.00 0.00 56 1018.6
20260504004921 58 162 1.0 4.0 0.00 0.00 0.00 56 1018.5
20260504003921 59 154 1.0 2.0 0.00 0.00 0.00 54 1018.5
20260504002921 60 154 2.0 3.0 0.00 0.00 0.00 54 1018.4
20260504001921 61 153 1.0 3.0 0.00 0.00 0.00 51 1018.4
20260504000921 62 187 1.0 2.0 0.00 0.00 0.00 48 1018.6
20260503235921 62 182 2.0 3.0 0.00 0.00 0.00 48 1018.6
20260503234921 63 145 1.0 4.0 0.00 0.00 0.00 46 1018.7
20260503233921 63 199 2.0 4.0 0.00 0.00 0.00 46 1018.7
20260503232921 64 204 2.0 7.0 0.00 0.00 0.00 44 1018.8
20260503231921 65 143 2.0 8.0 0.00 0.00 0.00 43 1018.9
20260503230921 65 284 2.0 8.0 0.00 0.00 0.00 41 1019.0
20260503225921 65 116 3.0 9.0 0.00 0.00 0.00 42 1019.2
20260503224921 65 188 2.0 6.0 0.00 0.00 0.00 41 1019.2
20260503223921 65 293 3.0 9.0 0.00 0.00 0.00 39 1019.4
20260503222921 66 293 2.0 6.0 0.00 0.00 0.00 41 1019.3
20260503221921 65 251 2.0 8.0 0.00 0.00 0.00 39 1019.4
20260503220921 65 253 3.0 7.0 0.00 0.00 0.00 40 1019.5
20260503215921 65 259 4.0 13.0 0.00 0.00 0.00 38 1019.7
20260503214921 65 206 3.0 8.0 0.00 0.00 0.00 41 1019.7
20260503213921 66 126 2.0 9.0 0.00 0.00 0.00 40 1019.6
20260503212921 66 262 3.0 7.0 0.00 0.00 0.00 40 1019.8
20260503211922 65 193 3.0 4.0 0.00 0.00 0.00 42 1019.9
20260503210922 65 264 3.0 9.0 0.00 0.00 0.00 40 1019.9
20260503205922 65 140 4.0 9.0 0.00 0.00 0.00 40 1020.0
20260503204922 65 198 3.0 6.0 0.00 0.00 0.00 40 1020.0
20260503203922 64 283 3.0 8.0 0.00 0.00 0.00 44 1020.3
20260503202922 65 251 3.0 8.0 0.00 0.00 0.00 42 1020.5
20260503201922 64 314 4.0 9.0 0.00 0.00 0.00 40 1020.6
20260503200922 65 138 2.0 7.0 0.00 0.00 0.00 40 1020.8
20260503195922 64 152 3.0 8.0 0.00 0.00 0.00 41 1021.0
20260503194922 64 282 3.0 6.0 0.00 0.00 0.00 44 1021.1
20260503193922 64 8 2.0 9.0 0.00 0.00 0.00 45 1021.1
20260503192922 64 297 2.0 5.0 0.00 0.00 0.00 44 1021.4
20260503191922 64 243 3.0 9.0 0.00 0.00 0.00 44 1021.5
20260503190922 63 245 3.0 4.0 0.00 0.00 0.00 43 1021.5
20260503185922 63 324 3.0 12.0 0.00 0.00 0.00 44 1021.7
20260503184922 63 29 2.0 6.0 0.00 0.00 0.00 43 1021.8
20260503183922 62 319 3.0 8.0 0.00 0.00 0.00 46 1022.0
20260503182922 61 82 3.0 7.0 0.00 0.00 0.00 47 1021.9
20260503181922 61 289 3.0 8.0 0.00 0.00 0.00 45 1022.3
20260503180922 61 313 3.0 6.0 0.00 0.00 0.00 45 1022.3
20260503175922 60 151 3.0 8.0 0.00 0.00 0.00 45 1022.3
20260503174922 60 354 4.0 4.0 0.00 0.00 0.00 45 1022.5
20260503173922 59 323 4.0 9.0 0.00 0.00 0.00 48 1022.6
20260503172922 61 158 2.0 8.0 0.00 0.00 0.00 45 1022.7
20260503171922 60 342 2.0 6.0 0.00 0.00 0.00 46 1022.9
20260503170922 59 197 3.0 6.0 0.00 0.00 0.00 46 1022.9
20260503150922 55 168 2.0 5.0 0.00 0.00 0.00 51 1024.1
20260503130923 50 300 1.0 2.0 0.00 0.00 0.00 70 1023.9
20260503080923 48 4 0.0 0.0 0.00 0.00 0.00 72 1021.1
20260503072923 49 354 0.0 1.0 0.00 0.00 0.00 71 1020.7
20260503071923 50 354 0.0 1.0 0.00 0.00 0.00 70 1020.5
20260503070923 50 354 0.0 0.0 0.00 0.00 0.00 70 1020.5
20260503054923 50 39 0.0 1.0 0.00 0.00 0.00 71 1020.3
20260503053923 51 39 0.0 1.0 0.00 0.00 0.00 69 1020.3
20260503052923 51 39 0.0 1.0 0.00 0.00 0.00 69 1020.2
20260503051923 51 39 0.0 1.0 0.00 0.00 0.00 70 1020.3
20260503050923 51 39 0.0 1.0 0.00 0.00 0.00 67 1020.3
20260503045923 51 39 0.0 1.0 0.00 0.00 0.00 66 1020.2
20260503044924 52 39 0.0 1.0 0.00 0.00 0.00 66 1020.1
20260503043924 52 39 0.0 1.0 0.00 0.00 0.00 65 1020.1
20260503042924 52 39 0.0 3.0 0.00 0.00 0.00 65 1020.0
20260503041924 52 42 1.0 2.0 0.00 0.00 0.00 65 1020.1
20260503040924 52 29 1.0 2.0 0.00 0.00 0.00 64 1019.9
20260503035924 52 354 1.0 2.0 0.00 0.00 0.00 64 1020.0
20260503034924 52 23 0.0 3.0 0.00 0.00 0.00 64 1020.0
20260503033924 52 33 0.0 0.0 0.00 0.00 0.00 65 1019.9
20260503032924 52 33 0.0 0.0 0.00 0.00 0.00 65 1020.0
20260503031924 53 33 0.0 0.0 0.00 0.00 0.00 64 1019.9
20260503030924 53 33 0.0 0.0 0.00 0.00 0.00 62 1019.8
20260503025924 53 33 0.0 0.0 0.00 0.00 0.00 62 1019.6
20260503024924 53 33 0.0 2.0 0.00 0.00 0.00 63 1019.4